"Pseudo-MPEC" for P10NVD8

Created 2019 May 19 15:07:24 UT using Find_Orb

Click here for an explanation of pseudo-MPECs

 
 Astrometry: 
     P10NVD8  C2019 05 12pXM/LF$Eo\vUOgdAstrometry(q1Tg?2IHh`LLOredacted;jva=F51
     P10NVD8  C2019 05 12+hcc32cgO*,1=?@*^-.-uHYGQ#clickw9u)'8FnKFXlOx:Y9F.KuF51
     P10NVD8  C2019 05 12W^herew.btG7W(O$w$/m.KkHDa(]b]p%2for'explanationc/j%F51

Station data:
(F51) Pan-STARRS 1, Haleakala  (N20.707235 W156.255910)  US/Hawaii.
   Observers N. Primak, A. Schultz, S. Watters, J. Thiel, T. Goggia. Measurer
   PS1 Science Consortium. 1.8-m Ritchey-Chrétien + CCD.

Orbital elements:  P10NVD8
   Perihelion 2019 Jul 6.135812 +/- 32.9 TT =  3:15:34 (JD 2458670.635812)
Epoch 2019 May 13.0 TT = JDT 2458616.5   Earth MOID: 0.0123   AutoNEOCP
M 310.90631423 +/- 29               (J2000 ecliptic)
n   0.90686154 +/- 0.477            Peri.  103.13875 +/- 110
a   1.05708211 +/- 0.371            Node   181.99152 +/- 70
e   0.0414937 +/- 0.249             Incl.    0.88607 +/- 11
P   1.09/396.97d           H 27.7   G  0.15   U 12.2  SR
q 1.01321978 +/- 0.316    Q 1.10094444 +/- 33
From 3 observations 2019 May 12 (34.0 min); mean residual 0".02
Residuals in arcseconds: 
190512 F51  .02+  .01+    190512 F51  .03-  .02-    190512 F51  .01+  .01+    

Ephemerides (geocentric):
Date (UTC) HH   RA              Dec         delta   r     elong  mag " sig PA
---- -- -- --  -------------   -----------  ------ ------ -----  --- ---- ---
2019 05 19 15  18 13 14.144   +13 45 42.76  .02186 1.0259 130.2 21.2  66d   4
2019 05 19 16  18 13 32.676   +13 48 52.71  .02184 1.0259 130.1 21.2  66d   4
2019 05 19 17  18 13 51.237   +13 52 02.76  .02182 1.0259 130.1 21.2  66d   4
2019 05 19 18  18 14 09.827   +13 55 12.93  .02181 1.0258 130.0 21.3  66d   4
2019 05 19 19  18 14 28.446   +13 58 23.21  .02179 1.0258 129.9 21.3  66d   4
2019 05 19 20  18 14 47.095   +14 01 33.59  .02178 1.0258 129.9 21.3  66d   4
2019 05 19 21  18 15 05.772   +14 04 44.08  .02176 1.0258 129.8 21.3  66d   4
2019 05 19 22  18 15 24.479   +14 07 54.68  .02174 1.0258 129.7 21.3  66d   4
2019 05 19 23  18 15 43.215   +14 11 05.38  .02173 1.0257 129.7 21.3  66d   4
2019 05 20 00  18 16 01.980   +14 14 16.18  .02171 1.0257 129.6 21.3  66d   4
2019 05 20 01  18 16 20.774   +14 17 27.09  .02170 1.0257 129.5 21.3  66d   4
2019 05 20 02  18 16 39.598   +14 20 38.10  .02168 1.0257 129.5 21.3  66d   4
2019 05 20 03  18 16 58.451   +14 23 49.21  .02166 1.0257 129.4 21.3  66d   4
2019 05 20 04  18 17 17.333   +14 27 00.41  .02165 1.0256 129.3 21.3  66d   4
2019 05 20 05  18 17 36.244   +14 30 11.72  .02163 1.0256 129.2 21.3  66d   4
2019 05 20 06  18 17 55.185   +14 33 23.12  .02162 1.0256 129.2 21.3  66d   4
2019 05 20 07  18 18 14.155   +14 36 34.62  .02160 1.0256 129.1 21.3  66d   4
2019 05 20 08  18 18 33.154   +14 39 46.21  .02159 1.0255 129.0 21.3  66d   4
2019 05 20 09  18 18 52.182   +14 42 57.90  .02157 1.0255 129.0 21.3  66d   4
2019 05 20 10  18 19 11.240   +14 46 09.68  .02156 1.0255 128.9 21.3  67d   4
2019 05 20 11  18 19 30.327   +14 49 21.55  .02154 1.0255 128.8 21.3  67d   4
2019 05 20 12  18 19 49.443   +14 52 33.51  .02153 1.0255 128.8 21.3  67d   4
2019 05 20 13  18 20 08.589   +14 55 45.56  .02151 1.0254 128.7 21.3  67d   4
2019 05 20 14  18 20 27.764   +14 58 57.70  .02150 1.0254 128.6 21.3  67d   4
2019 05 20 15  18 20 46.968   +15 02 09.92  .02148 1.0254 128.6 21.3  67d   4
2019 05 20 16  18 21 06.202   +15 05 22.23  .02147 1.0254 128.5 21.3  67d   4
2019 05 20 17  18 21 25.465   +15 08 34.62  .02145 1.0254 128.4 21.3  67d   4
2019 05 20 18  18 21 44.757   +15 11 47.09  .02144 1.0253 128.4 21.3  67d   4
2019 05 20 19  18 22 04.079   +15 14 59.65  .02142 1.0253 128.3 21.3  67d   4
2019 05 20 20  18 22 23.430   +15 18 12.29  .02141 1.0253 128.2 21.3  67d   4
2019 05 20 21  18 22 42.810   +15 21 25.00  .02139 1.0253 128.2 21.3  67d   4
2019 05 20 22  18 23 02.220   +15 24 37.80  .02138 1.0253 128.1 21.3  67d   4
2019 05 20 23  18 23 21.659   +15 27 50.67  .02136 1.0252 128.0 21.3  67d   4
2019 05 21 00  18 23 41.128   +15 31 03.62  .02135 1.0252 127.9 21.3  67d   4
2019 05 21 01  18 24 00.626   +15 34 16.64  .02133 1.0252 127.9 21.3  67d   4
2019 05 21 02  18 24 20.153   +15 37 29.73  .02132 1.0252 127.8 21.3  67d   4
2019 05 21 03  18 24 39.710   +15 40 42.89  .02130 1.0251 127.7 21.3  67d   4
2019 05 21 04  18 24 59.296   +15 43 56.13  .02129 1.0251 127.7 21.3  67d   4
2019 05 21 05  18 25 18.911   +15 47 09.43  .02128 1.0251 127.6 21.3  67d   4
2019 05 21 06  18 25 38.556   +15 50 22.80  .02126 1.0251 127.5 21.3  67d   4
2019 05 21 07  18 25 58.230   +15 53 36.24  .02125 1.0251 127.5 21.3  67d   4
2019 05 21 08  18 26 17.934   +15 56 49.74  .02123 1.0250 127.4 21.3  67d   4
2019 05 21 09  18 26 37.667   +16 00 03.31  .02122 1.0250 127.3 21.3  67d   4
2019 05 21 10  18 26 57.429   +16 03 16.93  .02121 1.0250 127.2 21.3  67d   5
2019 05 21 11  18 27 17.221   +16 06 30.62  .02119 1.0250 127.2 21.3  67d   5
2019 05 21 12  18 27 37.042   +16 09 44.37  .02118 1.0250 127.1 21.3  67d   5
2019 05 21 13  18 27 56.892   +16 12 58.18  .02116 1.0249 127.0 21.3  67d   5
2019 05 21 14  18 28 16.772   +16 16 12.04  .02115 1.0249 127.0 21.3  67d   5